Wind_Speed
7 7 6 6 6 5 4 3 2 2 2 2 1 1 2 2 2 2 2 3 3 4 4 4 4 4 4 4 4 4 5 5 5 5 6 7 7 8 8 8 9 9 9
6 6 6 6 6 5 4 3 2 1 1 1 1 2 1 2 3 4 5 5 5 6 6 6 6 5 5 6 6 6 7 7 7 7 7 7 8 9 9 10 10 10 10
6 5 5 5 5 4 3 3 2 1 0 1 2 2 2 3 4 5 6 7 7 7 8 7 7 7 8 8 9 9 9 9 9 9 9 9 10 10 10 10 10 11 11
6 5 4 3 3 3 3 2 2 2 2 2 2 3 3 4 5 6 7 8 8 8 8 8 9 9 9 9 10 11 11 11 11 11 12 12 12 12 11 12 12 12 12
4 4 3 3 2 2 2 3 3 3 3 3 3 4 5 6 6 7 7 8 9 9 9 9 10 10 10 10 10 11 12 12 12 12 13 13 13 13 13 13 13 14 14
4 3 3 2 2 2 3 3 3 3 4 4 5 5 6 7 7 7 8 8 9 10 10 10 11 11 12 11 10 11 12 12 13 13 13 13 13 14 14 14 14 14 14
4 3 3 2 2 3 3 4 4 4 5 5 6 6 6 7 7 7 8 8 8 9 10 10 11 12 12 11 12 13 13 13 14 14 14 14 14 14 15 15 15 15 15
3 3 3 3 3 4 4 5 5 5 6 6 6 6 6 7 7 7 7 8 9 10 10 10 12 12 12 12 13 14 14 15 15 15 15 15 15 15 15 15 15 16 16
4 3 3 4 4 5 5 5 6 6 6 6 6 7 7 8 7 8 8 8 8 10 10 10 11 12 12 12 14 15 16 16 15 15 15 16 16 15 14 14 15 16 16
3 3 4 4 4 5 5 6 6 6 6 7 7 7 7 8 8 8 8 8 9 10 10 10 10 11 11 12 13 13 13 14 14 14 15 15 15 15 15 16 16 17 17
4 4 4 5 5 5 6 7 7 7 7 7 6 6 7 7 8 8 9 10 11 11 11 11 10 11 11 11 12 12 12 12 13 13 14 15 15 16 16 17 18 18 18
5 5 5 5 5 6 6 7 7 7 7 7 7 7 7 7 8 8 9 10 10 11 11 11 11 11 11 11 11 11 12 13 13 14 14 15 15 15 16 17 18 18 19
6 6 6 6 7 7 7 7 8 8 8 8 8 8 8 8 9 9 10 10 10 10 11 11 11 11 11 11 11 11 12 13 13 14 14 14 14 15 16 17 18 19 20
7 7 8 7 7 8 8 8 8 9 8 8 9 9 10 10 10 10 11 11 11 11 11 11 11 11 12 12 12 12 13 13 13 14 14 14 15 16 17 18 19 20 21
8 8 8 9 8 8 8 8 9 9 9 9 10 10 10 10 10 10 10 11 11 11 12 12 12 12 12 13 13 14 14 13 13 13 14 14 14 15 17 18 19 20 21
9 9 9 9 9 9 9 9 9 9 9 9 10 10 10 10 10 10 11 11 11 12 12 12 13 13 13 13 13 14 14 14 14 15 15 15 15 16 17 18 19 20 21
10 10 10 10 10 10 10 9 9 9 10 10 10 11 11 11 11 11 12 12 12 13 13 13 14 14 14 14 14 14 14 14 15 15 15 16 17 18 18 19 20 21 22
10 11 11 11 11 10 10 10 10 10 10 11 11 12 12 13 12 13 14 14 14 14 14 14 14 14 14 14 14 14 14 15 15 16 16 17 18 19 20 20 21 22 23
10 11 11 11 11 11 11 11 11 11 11 12 12 13 14 14 14 15 15 15 14 14 14 14 14 14 14 15 15 15 15 16 16 17 18 19 19 20 22 23 23 23 23
11 12 12 12 12 12 11 11 12 13 13 14 14 14 14 15 15 15 16 15 15 14 14 14 14 14 15 15 15 16 16 17 18 18 19 20 21 22 22 23 23 23 24
12 12 12 12 12 12 13 13 14 15 15 15 16 16 15 16 16 16 16 15 15 15 15 15 16 15 15 15 16 16 17 18 19 19 20 21 21 22 23 23 24 24 25
13 13 13 13 14 14 14 15 16 16 17 17 17 17 17 17 17 17 17 16 16 16 16 16 16 16 16 17 17 18 18 19 20 20 21 22 23 23 24 24 25 25 26
14 14 14 14 15 15 16 16 17 17 17 17 17 17 18 18 18 18 17 17 17 17 17 17 17 17 18 18 19 20 20 21 21 22 22 23 24 24 25 25 26 27 28
14 14 15 16 16 17 18 18 19 19 18 18 18 18 19 19 18 18 18 18 19 19 19 19 18 18 19 20 21 21 21 22 23 23 23 24 25 26 27 27 28 28 29
16 16 17 17 18 18 19 20 20 20 19 19 19 20 20 20 20 20 20 20 20 20 20 20 20 21 21 22 22 22 23 23 24 25 25 26 27 27 28 29 29 30 30
19 20 20 20 20 20 21 22 22 21 21 21 21 21 21 21 21 21 21 21 21 22 21 21 21 21 22 23 23 24 24 25 26 26 27 28 28 29 29 30 30 31 31
Wind_Direction
91 90 92 89 84 85 92 109 108 97 107 130 148 164 171 189 218 243 257 256 258 264 265 266 270 265 262 265 273 274 276 277 279 281 279 276 275 274 274 274 273 272 271
87 85 89 84 83 77 70 70 83 87 90 196 232 239 235 257 271 273 268 267 270 271 266 267 269 265 266 269 273 276 277 279 280 280 279 277 281 278 277 275 271 270 269
84 84 85 79 76 69 58 50 50 44 282 289 290 283 284 280 277 276 275 273 276 280 274 270 269 267 270 274 275 277 275 277 279 278 278 279 280 278 281 279 276 276 276
80 78 78 74 64 48 35 21 356 337 311 301 294 295 291 294 289 285 283 280 282 284 277 273 274 272 272 279 278 275 274 276 278 277 277 277 278 278 277 278 279 279 280
77 69 67 58 41 23 5 342 331 317 306 298 291 289 290 295 294 290 292 291 290 289 280 275 280 276 275 277 280 278 277 277 279 278 278 277 279 278 277 278 278 277 275
67 64 60 49 20 6 349 335 321 315 308 301 291 290 289 291 289 288 290 291 288 287 284 281 279 279 279 271 273 277 278 279 281 281 279 278 279 278 278 277 277 277 274
55 53 38 17 0 345 339 335 322 314 308 304 299 296 294 287 284 284 286 287 289 286 289 283 279 282 280 275 272 274 275 277 279 279 277 277 278 279 277 276 276 276 277
34 28 9 356 352 344 333 328 324 311 306 304 301 295 293 293 292 292 290 289 291 289 287 283 282 280 277 278 281 278 276 278 280 278 277 277 278 280 278 277 278 276 278
28 17 358 349 347 344 339 331 331 322 311 301 299 298 293 295 293 291 290 293 297 293 290 288 284 281 281 283 288 287 284 282 282 278 277 279 278 277 277 277 278 281 279
18 12 1 353 350 342 334 325 325 327 316 306 303 304 299 296 294 292 292 296 300 301 299 297 296 295 293 292 290 291 290 284 282 280 277 278 276 275 277 280 279 278 278
21 7 355 349 346 340 334 330 324 324 328 318 310 307 305 303 304 305 300 299 300 299 299 299 298 297 298 298 296 292 288 289 286 281 279 281 280 277 279 279 279 280 279
8 360 350 337 331 328 327 328 325 324 325 326 322 316 310 307 305 303 305 307 306 305 304 300 297 296 296 294 293 292 291 291 288 284 283 281 281 280 280 280 280 281 282
360 355 348 339 330 325 324 323 321 320 319 318 318 317 311 309 306 304 303 306 305 306 306 304 303 300 300 300 293 294 296 293 291 289 285 283 282 282 281 282 283 282 282
355 351 345 336 330 327 324 323 323 324 322 318 315 313 311 309 308 307 306 306 305 304 305 305 304 302 299 299 299 300 301 299 298 295 294 292 287 285 285 286 287 287 286
351 345 343 339 333 329 329 327 327 329 327 325 322 317 312 310 309 307 307 306 304 301 302 304 302 301 301 299 297 298 299 297 297 297 295 296 298 296 292 292 291 288 288
345 345 345 342 337 334 330 327 327 328 328 327 326 325 321 315 311 307 307 306 305 303 302 302 303 303 301 301 299 300 300 299 297 297 297 297 300 301 299 298 296 293 291
341 345 344 341 339 332 330 328 325 325 327 326 324 323 323 319 312 308 307 306 305 303 300 300 302 301 299 299 298 297 300 299 298 297 298 300 300 301 300 299 298 298 298
337 339 339 339 339 336 331 329 327 325 325 323 321 319 318 317 315 310 309 307 304 302 301 299 300 300 301 300 299 298 299 299 298 297 298 300 300 301 302 301 300 300 300
335 338 337 336 337 336 333 332 331 325 321 318 316 315 314 313 313 312 311 309 306 303 302 302 302 301 301 300 298 297 297 296 296 296 298 299 301 301 301 302 303 302 302
334 336 336 335 335 334 332 331 329 327 324 319 316 314 313 313 312 312 311 309 306 304 303 303 302 302 301 298 297 299 299 298 298 298 298 300 301 302 303 303 304 304 303
334 332 332 332 331 330 328 325 323 322 321 318 316 315 313 312 311 311 310 308 307 305 302 300 302 300 298 298 299 300 299 299 299 299 299 300 302 304 305 305 305 305 305
329 328 326 327 326 326 324 323 321 319 319 316 314 314 313 312 310 310 308 306 305 305 303 302 301 299 297 297 298 299 299 299 299 300 301 303 305 305 305 305 306 307 306
328 326 323 322 321 322 322 321 321 319 317 315 313 313 312 311 310 308 308 305 304 303 303 303 300 298 297 297 298 298 298 299 301 302 303 304 305 305 305 305 305 305 305
322 321 319 318 318 320 320 320 319 317 315 315 314 312 311 311 310 307 305 305 304 304 303 302 300 298 297 297 297 298 297 298 300 301 301 302 303 304 305 304 305 305 306
315 315 317 316 318 318 317 317 316 315 314 312 311 311 311 311 309 306 304 304 303 303 303 301 299 298 297 297 296 297 297 298 300 301 302 303 303 304 305 305 305 305 305
314 316 316 317 317 315 314 313 313 312 312 311 310 309 309 309 308 306 304 304 303 301 300 299 299 298 298 297 297 297 297 297 299 300 301 302 302 303 303 303 304 304 304
Height
5897 5897 5897 5897 5897 5897 5897 5896 5896 5896 5896 5896 5895 5895 5895 5895 5894 5894 5894 5894 5893 5893 5892 5892 5891 5891 5890 5889 5889 5889 5888 5887 5887 5886 5885 5885 5885 5884 5883 5883 5882 5882 5881
5898 5898 5898 5898 5898 5898 5897 5897 5897 5897 5896 5896 5896 5895 5895 5895 5894 5894 5893 5893 5892 5892 5891 5891 5890 5890 5889 5888 5888 5887 5887 5886 5885 5885 5884 5883 5883 5882 5881 5881 5880 5880 5879
5899 5899 5899 5899 5898 5898 5898 5897 5897 5896 5896 5896 5895 5895 5894 5894 5893 5893 5892 5892 5891 5890 5890 5889 5889 5888 5888 5887 5886 5885 5885 5884 5883 5883 5882 5881 5881 5880 5879 5879 5878 5878 5877
5900 5900 5900 5900 5899 5899 5898 5898 5897 5896 5896 5895 5895 5894 5894 5893 5892 5892 5891 5890 5889 5889 5888 5887 5887 5886 5885 5884 5884 5883 5882 5882 5881 5880 5880 5879 5878 5877 5877 5876 5875 5875 5874
5901 5900 5900 5900 5899 5898 5898 5897 5896 5896 5895 5895 5894 5893 5892 5892 5891 5890 5889 5889 5888 5887 5886 5885 5884 5883 5883 5882 5881 5881 5880 5879 5878 5877 5877 5876 5875 5874 5874 5873 5872 5872 5871
5901 5901 5900 5900 5899 5898 5898 5897 5896 5896 5895 5894 5893 5892 5891 5890 5890 5889 5888 5887 5886 5885 5884 5883 5882 5881 5879 5878 5878 5878 5877 5876 5875 5874 5874 5873 5872 5871 5870 5870 5869 5868 5868
5901 5901 5900 5900 5899 5898 5897 5896 5895 5895 5894 5893 5892 5891 5890 5889 5888 5887 5886 5885 5884 5882 5881 5880 5879 5878 5877 5875 5875 5875 5874 5873 5872 5871 5870 5870 5869 5868 5867 5866 5866 5865 5864
5901 5900 5900 5899 5898 5897 5897 5895 5895 5893 5892 5891 5891 5889 5888 5888 5886 5885 5884 5883 5881 5880 5879 5877 5876 5875 5874 5873 5872 5871 5871 5870 5869 5868 5867 5866 5865 5864 5863 5863 5862 5861 5861
5901 5900 5899 5898 5898 5897 5896 5894 5894 5892 5891 5890 5889 5888 5887 5886 5885 5883 5882 5881 5879 5878 5876 5874 5874 5872 5871 5870 5869 5869 5867 5866 5865 5864 5863 5863 5862 5861 5860 5859 5858 5857 5857
5900 5899 5899 5898 5897 5896 5895 5893 5892 5891 5889 5888 5887 5886 5885 5884 5883 5881 5880 5878 5877 5875 5874 5872 5871 5869 5868 5867 5866 5865 5864 5863 5861 5860 5860 5859 5858 5857 5856 5855 5854 5853 5852
5900 5899 5898 5897 5896 5895 5894 5892 5891 5889 5888 5886 5885 5884 5883 5882 5880 5879 5878 5876 5874 5873 5871 5870 5869 5867 5866 5864 5863 5862 5860 5859 5858 5856 5856 5855 5854 5852 5851 5850 5850 5848 5847
5900 5898 5897 5896 5895 5894 5892 5891 5889 5888 5886 5885 5884 5882 5881 5880 5879 5877 5875 5874 5872 5870 5868 5867 5866 5865 5863 5861 5860 5859 5857 5856 5854 5853 5852 5851 5850 5849 5847 5846 5845 5844 5842
5899 5898 5897 5895 5894 5893 5891 5889 5888 5886 5885 5883 5882 5880 5879 5878 5876 5875 5873 5871 5869 5868 5866 5865 5863 5862 5860 5859 5857 5856 5854 5852 5851 5849 5848 5847 5846 5844 5843 5842 5840 5839 5837
5899 5897 5896 5894 5893 5891 5889 5888 5886 5884 5883 5881 5880 5878 5877 5875 5874 5872 5871 5869 5867 5865 5864 5862 5860 5859 5858 5856 5854 5853 5851 5849 5848 5846 5845 5843 5842 5840 5839 5837 5836 5834 5832
5898 5896 5895 5893 5891 5889 5888 5886 5885 5883 5881 5879 5878 5876 5874 5872 5871 5869 5868 5866 5865 5863 5861 5859 5858 5856 5854 5853 5851 5849 5848 5846 5844 5843 5841 5839 5838 5836 5834 5832 5830 5828 5826
5897 5895 5893 5892 5890 5888 5886 5884 5883 5881 5879 5877 5875 5874 5872 5870 5868 5867 5865 5863 5862 5860 5858 5856 5855 5853 5851 5849 5848 5846 5844 5842 5841 5839 5837 5836 5834 5832 5829 5827 5825 5823 5821
5896 5894 5892 5890 5888 5886 5884 5883 5881 5879 5877 5875 5873 5872 5870 5868 5866 5864 5862 5860 5859 5857 5855 5853 5852 5850 5848 5846 5844 5842 5841 5839 5837 5835 5834 5832 5830 5827 5825 5822 5820 5817 5815
5894 5893 5891 5889 5887 5885 5883 5881 5879 5877 5875 5873 5871 5869 5867 5865 5863 5861 5859 5857 5855 5853 5852 5850 5848 5846 5844 5842 5840 5839 5837 5835 5833 5831 5829 5827 5825 5823 5820 5817 5814 5812 5809
5892 5891 5889 5887 5885 5883 5881 5879 5877 5875 5873 5871 5869 5867 5865 5862 5860 5858 5856 5854 5852 5850 5848 5846 5845 5843 5841 5839 5837 5835 5833 5831 5829 5827 5825 5823 5820 5817 5815 5812 5809 5806 5803
5890 5889 5887 5885 5883 5881 5879 5877 5875 5873 5871 5868 5866 5864 5862 5860 5857 5855 5853 5851 5848 5846 5845 5843 5841 5839 5837 5835 5833 5831 5829 5827 5825 5823 5820 5818 5815 5812 5809 5806 5803 5800 5797
5888 5886 5885 5883 5881 5879 5877 5875 5872 5870 5868 5865 5863 5860 5858 5856 5854 5852 5849 5847 5845 5843 5841 5839 5837 5835 5833 5831 5829 5827 5825 5823 5820 5818 5815 5813 5810 5807 5803 5800 5797 5794 5790
5886 5884 5882 5881 5879 5876 5874 5872 5870 5867 5865 5862 5859 5857 5855 5852 5850 5848 5846 5844 5841 5839 5837 5835 5833 5831 5828 5827 5824 5822 5820 5818 5816 5813 5810 5807 5804 5801 5797 5794 5791 5787 5783
5884 5882 5880 5878 5875 5873 5871 5869 5866 5863 5861 5858 5856 5853 5851 5848 5846 5844 5841 5839 5837 5835 5833 5831 5828 5826 5824 5822 5819 5817 5815 5812 5810 5807 5804 5801 5798 5794 5791 5788 5784 5780 5776
5881 5879 5876 5874 5872 5869 5867 5865 5862 5859 5857 5854 5852 5849 5847 5844 5842 5839 5837 5835 5832 5830 5828 5825 5823 5821 5819 5816 5814 5812 5809 5806 5804 5801 5798 5795 5791 5788 5784 5781 5777 5773 5769
5877 5875 5872 5869 5868 5865 5863 5861 5858 5855 5852 5850 5847 5845 5842 5839 5837 5834 5832 5829 5827 5825 5822 5820 5818 5815 5813 5810 5808 5805 5803 5800 5798 5795 5791 5788 5784 5781 5777 5773 5769 5765 5761
5874 5871 5868 5866 5864 5861 5858 5856 5853 5850 5847 5845 5842 5840 5837 5834 5831 5829 5826 5824 5821 5819 5816 5814 5812 5809 5807 5804 5802 5799 5796 5794 5791 5788 5784 5781 5777 5773 5769 5766 5761 5757 5753